STARLINK-31877, 59675

Orbit data source: Space-Track

STARLINK-31877, 59675 is a payload satellite owned by SpaceX/Seattle (US) in LEO that was launched on Mon, 06 May 2024 UTC via an FALCON 9 launch vehicle from the Air Force Eastern Test Range (AFETR). Payload-class satellites include a variety of spacecraft equipped with specific instruments for various scientific and technological missions. These include communications satellites like Starlink; space stations such as the ISS; scientific satellites like the Hubble; Earth observation satellites from companies like Planet Labs, Umbra, and HawkEye 360; GPS; miniature CubeSats for education and research; and military/defense satellites.

Loading next visibility...
Identifier
59675, 2024-084X
Orbit
LEO
Country
Flag of USUS
Related business
Manufacturer
SpaceX/Seattle
Mission
Operational Commercial Communications
Bus & Motor
STARLINK V2M, Unknown motor
Mass
730 kg wet, ~700 kg dry
Launch date (UTC)
2024-05-06 (2 years ago)
Launch vehicle
FALCON 9
Launch site
Air Force Eastern Test Range (AFETR)
Object type
Payload
Rocket body
Debris
Shape & HBR
Box + 2 Pan, 17.7 m
Radar Cross Section
33.884 m², Large (>1 m²)

Expand to show TLE details & history
Last TLE update: 1 day ago

TLE from 1 day ago
0 STARLINK-31877
1 59675U 24084X   25347.84949737  .00001106  00000-0  49692-4 0  9994
2 59675  42.9998 166.6861 0001287 277.2235  82.8470 15.27578712 91245
Epoch: 2025-12-13T20:23Z
TLE epoch observation values (Epoch: 2025-12-13T20:23:16.572Z)
Latitude
-0.00005°
Longitude
138.09613°
Altitude
482.719 km
Speed
7.626 km/s
True Right ascension
11h 06m 44s
True Declination
0° 00' 00"
Sunlit
Object was in daylight at epoch
Visualization orbit readout
Latitude
Unknown
Longitude
Unknown
Altitude
Unknown
Speed
Unknown
Apparent Right ascension
Unknown
Apparent Declination
Unknown
Sunlit
N/A
Visualization observer readout
Local Sidereal Time
19:43:41
Azimuth
Unknown
Elevation
Unknown
Doppler factor
Unknown
Orbital elements
Apogee altitude
485.881 km
Perigee altitude
484.115 km
Semi-major axis
6,863.135 km
Eccentricity
0.00013
Inclination
42.9998°
RAAN
166.6861°
Arg. of periapsis
277.2235°
True anomaly
82.86163°
Mean anomaly
82.847°
Eccentric anomaly
82.85432°
Mean motion
3.81733 °/min
Orbital period
94.31 mins
BSTAR
0.000049692
Loading maneuver chart data...
Computing Atmospheric mass density...
Loading historical data...
Loading historical data...
Loading historical data...
Loading historical data...
Loading historical data...
Loading historical data...
Loading historical data...

Documentation

Showing up to 5 results
|